Location: Unspecified
(40.7945°N, 0.0000°E)
Time: 07:59:37
(UTC+00:00)

deb Explorer IX - Pass Details

Date: 30 January 2021
Orbit: 537 x 1103 km, 38.8° (Epoch: 23 February)

Event Time Altitude Azimuth Distance (km) Brightness Sun altitude
Rises 21:03:49 0° 276° (W) 3,532 ? -43.2°
Reaches altitude 10° 21:07:29 10° 257° (WSW) 2,463 ? -43.9°
Enters shadow 21:07:57 11° 253° (WSW) 2,349 ? -44.0°
